Regional Weather Roundup
Issued by NWS

Home | Current Version | Previous Version | Graphics & Text | Print | Product List | Glossary Off
Versions: 1 2 3 4 5 6 7 8 9 10 11 12 13 14 15 16 17 18 19 20 21 22 23 24 25 26 27 28 29 30 31 32 33 34 35 36 37 38 39 40 41 42 43 44 45 46 47 48 49 50

144
ASUS43 KMKX 182310
RWRWI

WISCONSIN REGIONAL WEATHER ROUNDUP
NATIONAL WEATHER SERVICE MILWAUKEE/SULLIVAN WI
500 PM CST WED JAN 18 2017

NOTE: "FAIR" INDICATES FEW OR NO CLOUDS BELOW 12,000 FEET WITH NO
SIGNIFICANT WEATHER AND/OR OBSTRUCTIONS TO VISIBILITY.

WIZ001-002-006>008-014>016-023>028-190000-
NORTHWEST WISCONSIN

CITY           SKY/WX    TMP DP  RH WIND       PRES   REMARKS
SUPERIOR ARPT  CLOUDY    40  28  61 SW6       29.81S
ASHLAND        CLOUDY    41  28  60 S10       29.82R
HAYWARD        CLEAR     37  28  70 S7        29.84S WCI  32
SIREN          CLEAR     38  29  70 S6        29.85R WCI  34
CUMBERLAND     CLEAR     34  30  86 S9        29.86R WCI  26
RICE LAKE      CLEAR     36  30  79 S5        29.88S WCI  32
CHETEK         NOT AVBL
LADYSMITH      CLEAR     37  30  75 S6        29.88S WCI  32
EAU CLAIRE     CLEAR     36  30  79 S8        29.88S HAZE    WCI  30
MENOMONIE      CLEAR     36  31  83 MISG      29.88F
NEW RICHMOND   CLEAR     36  30  81 S5        29.87R WCI  32
OSCEOLA        CLEAR     36  31  82 S6        29.88S WCI  32
$$

WIZ003>005-009-010-017-018-190000-
NORTH CENTRAL WISCONSIN

CITY           SKY/WX    TMP DP  RH WIND       PRES   REMARKS
MANITOWISH WTR CLEAR     37  28  70 SW7       29.82S WCI  32
ARBOR VITAE    CLOUDY    39  28  65 SW3       29.83R
WOODRUFF       CLOUDY    39  28  65 SW3       29.83R
RHINELANDER    CLEAR     37  30  75 SW8       29.85R WCI  31
EAGLE RIVER    CLEAR     38  28  65 SW8       29.82S WCI  32
LAND O LAKES   CLEAR     41  26  53 W3        29.82R
PHILLIPS       CLEAR     36  29  76 SW5       29.84S WCI  32
TOMAHAWK       CLEAR     34  29  80 CALM      29.86S
MEDFORD        CLEAR     34  29  82 S3        29.87R
MERRILL        CLEAR     37  31  81 SW6         N/A  WCI  32
$$

WIZ029-030-035-036-043>047-190000-
CENTRAL WISCONSIN

CITY           SKY/WX    TMP DP  RH WIND       PRES   REMARKS
WAUSAU         CLEAR     38  31  76 SW3       29.87R
MOSINEE        CLEAR     36  32  87 SW8       29.89S WCI  29
MARSHFIELD     CLEAR     37  29  72 SW12      29.87F WCI  29
STEVENS POINT  CLEAR     36  29  75 SW6       29.90S WCI  32
WAUPACA        CLEAR     40  31  71 CALM      29.92S
WAUTOMA        CLEAR     36  30  79 S8        29.95S WCI  30
WISC RAPIDS    CLEAR     38  30  73 SW9       29.92S WCI  31
CAMP DOUGLAS   PTCLDY    37  30  75 S8        29.93F WCI  31
$$

WIZ011>013-019>022-031-037>040-048>050-190000-
NORTHEAST WISCONSIN

CITY           SKY/WX    TMP DP  RH WIND       PRES   REMARKS
ANTIGO         CLEAR     34  30  86 SW7       29.87R WCI  28
SHAWANO        CLEAR     41  32  72 SW6       29.89S
OCONTO         NOT AVBL
STURGEON BAY   CLEAR     34  31  88 S8        29.90R WCI  27
GREEN BAY      CLEAR     36  32  85 SW12      29.91S WCI  28
MANITOWOC      CLEAR     37  30  75 SW10      29.93F WCI  30
APPLETON       CLEAR     34  32  93 SW16      29.90S WCI  23
CLINTONVILLE   CLEAR     37  32  81 SW6       29.90S WCI  33
OSHKOSH        CLEAR     34  29  82 SW12      29.94F WCI  25
$$

WIZ032>034-041-042-053>061-190000-
SOUTHWEST WISCONSIN

CITY           SKY/WX    TMP DP  RH WIND       PRES   REMARKS
LA CROSSE      CLEAR     37  30  75 S10       29.96R WCI  30
SPARTA         CLEAR     33  31  90 S5        29.96S WCI  29
VIROQUA        CLEAR     32  31  95 SW12      29.95R WCI  23
BOSCOBEL       CLEAR     34  30  85 S6        30.00S WCI  29
PRAIRIE DU CHI CLOUDY    34  30  86 S8        30.01R WCI  27
PLATTEVILLE    CLOUDY    33  33 100 SW10      30.01S WCI  25
$$

WIZ056-057-062-063-064-067-068-190000-
SOUTH CENTRAL WISCONSIN

CITY           SKY/WX    TMP DP  RH WIND       PRES   REMARKS
REEDSBURG      CLEAR     33  31  96 S6        29.97R WCI  27
BARABOO/DELLS  CLEAR     34  30  86 SW8       29.97S WCI  27
LONE ROCK      CLEAR     34  29  82 CALM      30.00S HAZE
MINERAL POINT  CLOUDY    34  34 100 SW8       30.00R FOG     WCI  27
MADISON        CLOUDY    33  29  85 SW6       30.00S WCI  28
MIDDLETON      CLOUDY    34  33  95 SW7       30.00S WCI  28
WATERTOWN      CLOUDY    32  32 100 SW10      30.00R WCI  24
MONROE         CLOUDY    34  32  93 S10       30.00F FOG     WCI  26
JANESVILLE     CLOUDY    36  34  93 SW10      30.03F WCI  28
$$

WIZ051-052-058>065-066-070>072-190000-
SOUTHEAST WISCONSIN

CITY           SKY/WX    TMP DP  RH WIND       PRES   REMARKS
MILWAUKEE      PTCLDY    35  30  82 SW8       30.01S WCI  29
WAUKESHA       CLOUDY    30  28  93 SW9G16    30.01S WCI  22
MILWAUKEE/TIMM PTCLDY    34  28  80 SW12G17   30.01S WCI  25
RACINE         MOCLDY    33  29  85 SW9       30.03S WCI  25
KENOSHA        CLOUDY    33  30  88 SW13      30.02F WCI  24
FOND DU LAC    CLEAR     34  29  82 SW12      29.96R WCI  25
SHEBOYGAN      CLEAR     34  30  85 SW6       29.96S WCI  29
WEST BEND      CLEAR     32  32 100 SW8       29.98S WCI  25
JUNEAU         PTCLDY    32  30  93 S14       30.00S WCI  22
$$

LSZ147-162-190000-
LAKE SUPERIOR

STATION/POSITION TIME  TEMP    WIND        PRES    WAVE
                       AIR SEA DIR/SP/G            HT/PER
                 (UTC) (F)     (DEG/KT/KT) (MB)    (FT/S)
DEVILS ISLAND    2200   35     210/ 10/ 12 1009.2S
PORT WING        2240   40     230/  4/  4 1009.5S
SAXON HARBOR     2240   43     200/  8/ 12 1009.1S
$$

LMZ867-665-643>646-190000-
LAKE MICHIGAN

STATION/POSITION TIME  TEMP    WIND        PRES    WAVE
                       AIR SEA DIR/SP/G            HT/PER
                 (UTC) (F)     (DEG/KT/KT) (MB)    (FT/S)
NORTHPORT PIER   2240   36     230/  3/ 12 1011.9R
SISTER BAY       2250   36     210/ 14/ 17   N/A
KEWAUNEE LAKESHO 2248   37     220/  7/ 11 1012.4F
SHEBOYGAN LAKESH 2300   36     210/ 10/ 10 1014.9R
PORT WASHINGTON  2240   36     230/  5/  8 1016.3S
MILWAUKEE LAKESH 2250   35     230/ 12/ 14   N/A
KENOSHA   LAKESH 2300   34     210/ 10/ 13 1016.9
$$

TC  - TEMPERATURE IN CELSIUS
VSB - VISIBILITY IN STATUTE MILES
WCI - WIND CHILL INDEX
HX  - HEAT INDEX





USA.gov is the U.S. government's official web portal to all federal, state and local government web resources and services.